Atka, AK

5:49 AM HDT on March 27, 2017 (GMT -0900)
Atka

Weather History for PAAK - December, 2012

Change the Weather History Date:

Friday, December 14, 2012

  Actual Average (PADK) Record (PADK)
Temperature  
Mean Temperature 34 °F -  
Max Temperature 37 °F 38 °F 51 °F (1968)
Min Temperature 30 °F 29 °F 16 °F (1992)
Degree Days  
Heating Degree Days 32    
Moisture  
Dew Point -14 °F    
Average Humidity 12    
Maximum Humidity 13    
Minimum Humidity 11    
Precipitation  
Precipitation 0.00 in - - ()
Sea Level Pressure  
Sea Level Pressure 29.83 in    
Wind  
Wind Speed 20 mph (West)    
Max Wind Speed 36 mph    
Max Gust Speed 45 mph    
Visibility 9 miles    
Events      
Averages and records for this station are not official NWS values.
T = Trace of Precipitation, MM = Missing Value Source: NWS Daily Summary

Daily Weather History Graph

Daily Weather History Graph

Search for Another Location

Airport or City:

Trip Planner

Search our weather history database for the weather conditions in past years. The results will help you decide how hot, cold, wet, or windy it might be!

Date:

Astronomy

Dec. 14, 2012 Rise Set
Actual Time 9:39 AM HST 5:24 PM HST
Civil Twilight 8:58 AM HST 6:05 PM HST
Nautical Twilight 8:14 AM HST 6:49 PM HST
Astronomical Twilight 7:33 AM HST 7:30 PM HST
Moon 10:47 AM HST (12/14) 7:44 PM HST (12/14)
Length of Visible Light 9h 06m
Length of Day
7h 44m
Waxing Crescent, 4% of the Moon is Illuminated
Dec 14
Waxing Crescent
Dec 19
First Quarter
Dec 28
Full
Jan 4
Last Quarter
Jan 11
New

Hourly Weather History & Observations

Time (HST) Temp. Windchill Dew Point Humidity Pressure Visibility Wind Dir Wind Speed Gust Speed Precip Events Conditions
12:16 AM 37.4 °F 25.9 °F -13.0 °F 11% 29.70 in 10.0 mi WNW 25.3 mph 34.5 mph N/A   Overcast
12:36 AM 35.6 °F 25.5 °F -13.0 °F 12% 29.71 in 10.0 mi West 17.3 mph 21.9 mph N/A   Scattered Clouds
12:56 AM 35.6 °F 24.8 °F -11.2 °F 13% 29.72 in 5.0 mi WNW 19.6 mph 36.8 mph N/A   Mostly Cloudy
1:16 AM 35.6 °F 24.2 °F -13.0 °F 12% 29.73 in 10.0 mi West 21.9 mph 27.6 mph N/A   Mostly Cloudy
1:36 AM 37.4 °F 25.0 °F -11.2 °F 12% 29.73 in 10.0 mi West 29.9 mph 39.1 mph N/A   Mostly Cloudy
1:56 AM 35.6 °F 21.5 °F -13.0 °F 12% 29.75 in 2.5 mi West 35.7 mph 44.9 mph N/A   Mostly Cloudy
2:16 AM 33.8 °F 22.5 °F -14.8 °F 12% 29.75 in 8.0 mi WNW 19.6 mph 31.1 mph N/A   Overcast
2:36 AM 35.6 °F 25.5 °F -14.8 °F 11% 29.76 in 10.0 mi WNW 17.3 mph 25.3 mph N/A   Overcast
2:56 AM 35.6 °F 23.0 °F -13.0 °F 12% 29.75 in 10.0 mi WNW 27.6 mph 33.4 mph N/A   Mostly Cloudy
3:16 AM 35.6 °F 25.2 °F -13.0 °F 12% 29.77 in 10.0 mi West 18.4 mph 29.9 mph N/A   Overcast
3:36 AM 35.6 °F 25.2 °F -13.0 °F 12% 29.77 in 8.0 mi West 18.4 mph 28.8 mph N/A   Mostly Cloudy
3:56 AM 35.6 °F 23.4 °F -13.0 °F 12% 29.77 in 10.0 mi West 25.3 mph 36.8 mph N/A   Scattered Clouds
4:16 AM 37.4 °F 26.4 °F -13.0 °F 11% 29.77 in 10.0 mi West 23.0 mph 34.5 mph N/A   Mostly Cloudy
4:36 AM 35.6 °F 26.6 °F -13.0 °F 12% 29.78 in 10.0 mi West 13.8 mph 40.3 mph N/A   Overcast
4:56 AM 35.6 °F 25.5 °F -13.0 °F 12% 29.78 in 10.0 mi West 17.3 mph 26.5 mph N/A   Overcast
5:16 AM 35.6 °F 25.9 °F -13.0 °F 12% 29.78 in 10.0 mi West 16.1 mph 27.6 mph N/A   Scattered Clouds
5:36 AM 35.6 °F 25.5 °F -13.0 °F 12% 29.78 in 10.0 mi West 17.3 mph 27.6 mph N/A   Scattered Clouds
5:56 AM 33.8 °F 24.8 °F -14.8 °F 12% 29.79 in 10.0 mi WSW 12.7 mph 21.9 mph N/A   Scattered Clouds
6:16 AM 33.8 °F 26.4 °F -14.8 °F 12% 29.79 in 10.0 mi West 9.2 mph 17.3 mph N/A   Clear
6:36 AM 33.8 °F 23.2 °F -14.8 °F 12% 29.79 in 10.0 mi West 17.3 mph 20.7 mph N/A   Partly Cloudy
6:56 AM 33.8 °F 23.2 °F -14.8 °F 12% 29.79 in 10.0 mi West 17.3 mph 23.0 mph N/A   Partly Cloudy
7:16 AM 35.6 °F 25.2 °F -14.8 °F 11% 29.79 in 10.0 mi West 18.4 mph 27.6 mph N/A   Clear
7:36 AM 35.6 °F 28.0 °F - N/A% 29.80 in 10.0 mi West 10.4 mph - N/A   Clear
7:56 AM 33.8 °F 26.4 °F -14.8 °F 12% 29.79 in 10.0 mi WSW 9.2 mph - N/A   Partly Cloudy
8:16 AM 33.8 °F 26.4 °F -14.8 °F 12% 29.80 in 10.0 mi WSW 9.2 mph 17.3 mph N/A   Partly Cloudy
8:36 AM 33.8 °F 27.0 °F -14.8 °F 12% 29.80 in 10.0 mi West 8.1 mph - N/A   Clear
8:56 AM 33.8 °F 25.3 °F -16.6 °F 11% 29.80 in 10.0 mi West 11.5 mph 16.1 mph N/A   Clear
9:16 AM 33.8 °F 27.0 °F -14.8 °F 12% 29.80 in 10.0 mi WSW 8.1 mph 17.3 mph N/A   Clear
9:36 AM 32.0 °F 23.6 °F -16.6 °F 12% 29.80 in 10.0 mi WSW 10.4 mph - N/A   Clear
9:56 AM 32.0 °F 21.6 °F -16.6 °F 12% 29.80 in 10.0 mi West 15.0 mph 20.7 mph N/A   Clear
10:16 AM 33.8 °F 25.3 °F -14.8 °F 12% 29.80 in 10.0 mi West 11.5 mph 19.6 mph N/A   Scattered Clouds
10:36 AM 35.6 °F 25.5 °F - N/A% 29.80 in 10.0 mi West 17.3 mph 26.5 mph N/A   Partly Cloudy
10:56 AM 35.6 °F 26.6 °F -13.0 °F 12% 29.81 in 10.0 mi WSW 13.8 mph 20.7 mph N/A   Scattered Clouds
11:16 AM 37.4 °F 26.9 °F -11.2 °F 12% 29.81 in 10.0 mi West 20.7 mph 27.6 mph N/A   Mostly Cloudy
11:36 AM 35.6 °F 24.5 °F -11.2 °F 13% 29.83 in 0.5 mi West 20.7 mph 42.6 mph N/A   Overcast
11:56 AM 33.8 °F 21.0 °F -14.8 °F 12% 29.83 in 7.0 mi West 25.3 mph 38.0 mph N/A   Mostly Cloudy
12:16 PM 33.8 °F 24.8 °F -14.8 °F 12% 29.83 in 4.0 mi West 12.7 mph 17.3 mph N/A   Overcast
12:36 PM 35.6 °F 23.7 °F -13.0 °F 12% 29.82 in 10.0 mi West 24.2 mph 39.1 mph N/A   Mostly Cloudy
12:56 PM 37.4 °F 28.5 °F -11.2 °F 12% 29.82 in 10.0 mi West 15.0 mph 32.2 mph N/A   Overcast
1:16 PM 37.4 °F 26.4 °F -11.2 °F 12% 29.82 in 9.0 mi West 23.0 mph 34.5 mph N/A   Overcast
1:36 PM 37.4 °F 26.6 °F -11.2 °F 12% 29.83 in 10.0 mi West 21.9 mph 29.9 mph N/A   Overcast
1:56 PM 37.4 °F 24.2 °F -11.2 °F 12% 29.82 in 10.0 mi West 34.5 mph 41.4 mph N/A   Overcast
2:16 PM 35.6 °F 23.4 °F -13.0 °F 12% 29.83 in 8.0 mi West 25.3 mph 34.5 mph N/A   Overcast
2:36 PM 35.6 °F 23.0 °F -13.0 °F 12% 29.84 in 10.0 mi West 27.6 mph 36.8 mph N/A   Mostly Cloudy
2:56 PM 35.6 °F 22.5 °F -13.0 °F 12% 29.85 in 10.0 mi West 29.9 mph 41.4 mph N/A   Overcast
3:16 PM 33.8 °F 22.5 °F -14.8 °F 12% 29.85 in 10.0 mi West 19.6 mph 27.6 mph N/A   Mostly Cloudy
3:36 PM 33.8 °F 21.9 °F -14.8 °F 12% 29.86 in 2.5 mi WNW 21.9 mph 39.1 mph N/A   Mostly Cloudy
3:56 PM 33.8 °F 22.5 °F -14.8 °F 12% 29.86 in 10.0 mi West 19.6 mph 27.6 mph N/A   Mostly Cloudy
4:16 PM 35.6 °F 23.7 °F - N/A% 29.86 in 10.0 mi West 24.2 mph 32.2 mph N/A   Overcast
4:36 PM 35.6 °F 24.2 °F -14.8 °F 11% 29.88 in 10.0 mi West 21.9 mph 33.4 mph N/A   Mostly Cloudy
4:56 PM 35.6 °F 25.2 °F - N/A% 29.88 in 10.0 mi West 18.4 mph 24.2 mph N/A   Mostly Cloudy
5:16 PM 35.6 °F 24.8 °F -14.8 °F 11% 29.88 in 10.0 mi West 19.6 mph 25.3 mph N/A   Mostly Cloudy
5:36 PM 35.6 °F 24.5 °F - N/A% 29.90 in 10.0 mi West 20.7 mph 27.6 mph N/A   Mostly Cloudy
5:56 PM 33.8 °F 22.2 °F -14.8 °F 12% 29.89 in 10.0 mi West 20.7 mph 31.1 mph N/A   Mostly Cloudy
6:16 PM 33.8 °F 20.8 °F -14.8 °F 12% 29.90 in 5.0 mi West 26.5 mph 33.4 mph N/A   Mostly Cloudy
6:36 PM 32.0 °F 21.2 °F -16.6 °F 12% 29.91 in 10.0 mi West 16.1 mph 19.6 mph N/A   Scattered Clouds
6:56 PM 33.8 °F 21.9 °F -14.8 °F 12% 29.91 in 10.0 mi West 21.9 mph 27.6 mph N/A   Scattered Clouds
7:16 PM 33.8 °F 22.5 °F -14.8 °F 12% 29.91 in 10.0 mi West 19.6 mph 27.6 mph N/A   Scattered Clouds
7:36 PM 33.8 °F 21.6 °F -14.8 °F 12% 29.91 in 10.0 mi West 23.0 mph 28.8 mph N/A   Clear
7:56 PM 33.8 °F 21.3 °F -14.8 °F 12% 29.91 in 10.0 mi West 24.2 mph 34.5 mph N/A   Mostly Cloudy
8:16 PM 33.8 °F 21.3 °F -14.8 °F 12% 29.91 in 8.0 mi West 24.2 mph 32.2 mph N/A   Mostly Cloudy
8:36 PM 33.8 °F 23.2 °F -14.8 °F 12% 29.92 in 10.0 mi WNW 17.3 mph 27.6 mph N/A   Mostly Cloudy
8:56 PM 33.8 °F 22.8 °F -14.8 °F 12% 29.93 in 10.0 mi WNW 18.4 mph 26.5 mph N/A   Scattered Clouds
9:16 PM 33.8 °F 24.3 °F -14.8 °F 12% 29.93 in 10.0 mi WNW 13.8 mph - N/A   Mostly Cloudy
9:36 PM 33.8 °F 24.3 °F -14.8 °F 12% 29.94 in 10.0 mi WNW 13.8 mph 20.7 mph N/A   Mostly Cloudy
9:56 PM 32.0 °F 21.2 °F -14.8 °F 13% 29.94 in 7.0 mi NW 16.1 mph 27.6 mph N/A   Overcast
10:16 PM 30.2 °F 18.5 °F -16.6 °F 13% 29.94 in 10.0 mi WNW 17.3 mph 21.9 mph N/A   Scattered Clouds
10:36 PM 33.8 °F 24.3 °F -14.8 °F 12% 29.93 in 10.0 mi WNW 13.8 mph 25.3 mph N/A   Scattered Clouds
10:56 PM 33.8 °F 25.8 °F -14.8 °F 12% 29.92 in 10.0 mi WNW 10.4 mph 17.3 mph N/A   Mostly Cloudy
11:16 PM 33.8 °F 24.3 °F -14.8 °F 12% 29.93 in 10.0 mi West 13.8 mph 20.7 mph N/A   Mostly Cloudy
11:36 PM 33.8 °F 23.9 °F -14.8 °F 12% 29.93 in 10.0 mi WNW 15.0 mph 20.7 mph N/A   Overcast
11:56 PM 32.0 °F 22.5 °F -14.8 °F 13% 29.93 in 10.0 mi WNW 12.7 mph - N/A   Scattered Clouds